Sydney, Australia

10:39 AM AEDT en Enero 24, 2018 (GMT +1100)
Kingsford Smith International

Tiempo Historia de YSSY - Enero, 2018

Change the Weather History Date:

Sábado, Enero 13, 2018

  Actual Average Record
Temperature  
Temperatura media 82 ° F -  
Temperatura máxima 95 ° F 80 ° F 95 ° F (2018)
Temperatura mínima 68 ° F 65 ° F 59 ° F (2012)
Cooling Degree Days 17    
Growing Degree Days 32 (Base 50)    
Moisture  
Punto de rocío 69 ° F    
Average Humidity 72    
Maximum Humidity 100    
Minimum Humidity 27    
Precipitación  
Precipitación 0.00 pul 0.15 pul - ()
Presión al nivel del mar  
Presión al nivel del mar 29.56 pul    
Viento  
Velocidad del viento 12 mph ()    
Velocidad máxima del viento 30 mph    
Max Gust Speed 40 mph    
Visibilidad 7.4 Millas    
Eventos      
Averages and records for this station are not official NWS values.
T = Trace of Precipitation, MM = Missing Value Source: Averaged Metar Reports

Daily Weather History Graph

Daily Weather History Graph

Search for Another Location

Airport or City:

Trip Planner

Search our weather history database for the weather conditions in past years. The results will help you decide how hot, cold, wet, or windy it might be!

Date:

Astronomía

Jan. 13, 2018 Salida Puesta
Hora real 5:57 AM AEDT 8:09 PM AEDT
Crepúsculo civil 5:29 AM AEDT 8:38 PM AEDT
Crepúsculo náutico 4:54 AM AEDT 9:12 PM AEDT
Crepúsculo astronómico 4:16 AM AEDT 9:50 PM AEDT
Luna 2:56 AM AEDT (1/13) 4:55 PM AEDT (1/13)
Horas de luz 15h 09m
Horas de luz
14h 12m
Creciente menguante, 14% of the Moon is Illuminated
Ene 13
Creciente menguante
Ene 17
Nueva
Ene 25
Cuarto creciente
Feb 1
Luna llena
Feb 8
Cuarto menguante

Hourly Weather History & Observations

Hora (AEDT) Temp. Índice de calor Punto de rocío Humedad Presión Visibilidad Wind Dir Velocidad del viento Velocidad de ráfagas Precip Eventos Condiciones
12:00 AM 77 ° F - 74 ° F 88% 29.67 pul 9 mi SSE 12.7 mph - -   Bruma
12:00 AM 77.0 ° F - 73.4 ° F 89% 29.65 pul - SSE 12.7 mph - N/A   Despejado
12:30 AM 77.0 ° F - 73.4 ° F 89% 29.62 pul 6.2 mi Este 13.8 mph - N/A   Muy nublado
1:00 AM 75 ° F - 74 ° F 95% 29.62 pul - Este 13.8 mph - -  
1:00 AM 75.2 ° F - 73.4 ° F 94% 29.59 pul 6.2 mi Este 13.8 mph - N/A   Muy nublado
1:30 AM 75.2 ° F - 73.4 ° F 94% 29.59 pul 6.2 mi Este 10.4 mph - N/A   Muy nublado
1:52 AM 73.4 ° F - 73.4 ° F 100% 29.59 pul 6.2 mi Este 8.1 mph - N/A   Muy nublado
2:00 AM 74 ° F - 74 ° F 100% 29.59 pul - Este 5.8 mph - -  
2:00 AM 73.4 ° F - 73.4 ° F 100% 29.59 pul 6.2 mi Este 5.8 mph - N/A   Muy nublado
2:30 AM 73.4 ° F - 73.4 ° F 100% 29.56 pul 6.2 mi Este 4.6 mph - N/A   Muy nublado
3:00 AM 74 ° F - 74 ° F 100% 29.58 pul 6 mi SO 6.9 mph - -   Neblina
3:00 AM 73.4 ° F - 73.4 ° F 100% 29.56 pul 6.2 mi SO 6.9 mph - N/A   Muy nublado
3:30 AM 75.2 ° F - 75.2 ° F 100% 29.56 pul 6.2 mi SSO 6.9 mph - N/A   Muy nublado
4:00 AM 74 ° F - 74 ° F 99% 29.55 pul - SSE 3.5 mph - -  
4:00 AM 73.4 ° F - 73.4 ° F 100% 29.53 pul 6.2 mi SSE 3.5 mph - N/A   Muy nublado
4:20 AM 73.4 ° F - 73.4 ° F 100% 29.53 pul 6.2 mi ENE 4.6 mph - N/A   Muy nublado
4:30 AM 73.4 ° F - 73.4 ° F 100% 29.53 pul 5.6 mi NNE 4.6 mph - N/A   Muy nublado
5:00 AM 74 ° F - 74 ° F 99% 29.57 pul - OSO 15.0 mph - -  
5:00 AM 73.4 ° F - 73.4 ° F 100% 29.56 pul 6.2 mi OSO 15.0 mph - N/A   Muy nublado
5:30 AM 75.2 ° F - 75.2 ° F 100% 29.56 pul 6.2 mi Oeste 5.8 mph - N/A   Muy nublado
6:00 AM 76 ° F - 74 ° F 93% 29.57 pul 7 mi NNO 6.9 mph - -   Nubes dispersas
6:00 AM 77.0 ° F - 75.2 ° F 94% 29.56 pul 6.2 mi NNO 6.9 mph - N/A   Muy nublado
6:30 AM 77.0 ° F - 75.2 ° F 94% 29.53 pul - NNO 6.9 mph - N/A   Despejado
7:00 AM 77 ° F - 74 ° F 86% 29.56 pul - NO 6.9 mph - -  
7:00 AM 77.0 ° F - 73.4 ° F 89% 29.56 pul 6.2 mi NO 6.9 mph - N/A   Muy nublado
7:30 AM 77.0 ° F - 73.4 ° F 89% 29.56 pul - NO 8.1 mph - N/A   Despejado
8:00 AM 79 ° F - 74 ° F 81% 29.57 pul - NNO 6.9 mph - -  
8:00 AM 78.8 ° F - 73.4 ° F 83% 29.56 pul - NNO 6.9 mph - N/A   Despejado
8:30 AM 78.8 ° F - 73.4 ° F 83% 29.56 pul - NO 6.9 mph - N/A   Despejado
9:00 AM 81 ° F - 72 ° F 69% 29.57 pul 16 mi ONO 8.1 mph - -   Bruma
9:00 AM 80.6 ° F 85.4 ° F 73.4 ° F 79% 29.56 pul - ONO 8.1 mph - N/A   Despejado
9:30 AM 82.4 ° F 88.2 ° F 73.4 ° F 74% 29.53 pul - NO 10.4 mph - N/A   Despejado
10:00 AM 85 ° F - 73 ° F 59% 29.55 pul - NO 10.4 mph - -  
10:00 AM 86.0 ° F 93.4 ° F 73.4 ° F 66% 29.53 pul - NO 10.4 mph - N/A   Despejado
10:30 AM 87.8 ° F 92.6 ° F 69.8 ° F 55% 29.53 pul - NO 11.5 mph - N/A   Despejado
11:00 AM 89 ° F - 68 ° F 40% 29.53 pul - NO 12.7 mph - -  
11:00 AM 89.6 ° F 93.4 ° F 68.0 ° F 49% 29.50 pul - NO 12.7 mph - N/A   Despejado
11:30 AM 91.4 ° F 94.0 ° F 66.2 ° F 43% 29.50 pul 6.2 mi Oeste 12.7 mph - N/A   Nubes dispersas
12:00 PM 94 ° F - 65 ° F 29% 29.52 pul 19 mi Oeste 25.3 mph - -   Parcialmente nublado
12:00 PM 95.0 ° F 97.0 ° F 64.4 ° F 36% 29.50 pul 6.2 mi Oeste 25.3 mph - N/A   Nubes dispersas
12:23 PM 93.2 ° F 94.9 ° F 64.4 ° F 38% 29.50 pul - ONO 21.9 mph - N/A   Despejado
12:30 PM 93.2 ° F 94.9 ° F 64.4 ° F 38% 29.50 pul - ONO 23.0 mph - N/A   Despejado
12:52 PM 93.2 ° F 94.9 ° F 64.4 ° F 38% 29.50 pul - ONO 23.0 mph 35.7 mph N/A   Despejado
1:00 PM 94 ° F - 64 ° F 27% 29.52 pul - ONO 25.3 mph - -  
1:00 PM 95.0 ° F 97.0 ° F 64.4 ° F 36% 29.50 pul - ONO 25.3 mph - N/A   Despejado
1:03 PM 93.2 ° F 94.9 ° F 64.4 ° F 38% 29.50 pul - ONO 25.3 mph 40.3 mph N/A   Despejado
1:30 PM 93.2 ° F 94.9 ° F 64.4 ° F 38% 29.50 pul - Oeste 23.0 mph 35.7 mph N/A   Despejado
1:43 PM 89.6 ° F 91.1 ° F 64.4 ° F 43% 29.50 pul - OSO 28.8 mph - N/A   Despejado
2:00 PM 88 ° F - 68 ° F 41% 29.54 pul - OSO 23.0 mph - -  
2:00 PM 87.8 ° F 91.4 ° F 68.0 ° F 52% 29.53 pul - OSO 23.0 mph - N/A   Despejado
2:30 PM 86.0 ° F 87.3 ° F 64.4 ° F 48% 29.53 pul - OSO 25.3 mph - N/A   Despejado
3:00 PM 85 ° F - 61 ° F 35% 29.55 pul 19 mi OSO 29.9 mph - -   Parcialmente nublado
3:00 PM 86.0 ° F 86.1 ° F 60.8 ° F 43% 29.53 pul - OSO 29.9 mph - N/A   Despejado
3:03 PM 86.0 ° F 86.1 ° F 60.8 ° F 43% 29.53 pul - OSO 27.6 mph 39.1 mph N/A   Despejado
3:30 PM 84.2 ° F 84.4 ° F 60.8 ° F 45% 29.53 pul 6.2 mi OSO 26.5 mph - N/A   Muy nublado
3:59 PM 82.4 ° F 82.9 ° F 60.8 ° F 48% 29.53 pul 6.2 mi OSO 28.8 mph 40.3 mph N/A   Muy nublado
4:00 PM 83 ° F - 61 ° F 37% 29.56 pul - OSO 29.9 mph - -  
4:00 PM 84.2 ° F 84.4 ° F 60.8 ° F 45% 29.53 pul 6.2 mi OSO 29.9 mph - N/A   Muy nublado
4:37 PM 82.4 ° F 82.5 ° F 59.0 ° F 45% 29.53 pul - OSO 25.3 mph 38.0 mph N/A   Despejado
5:00 PM 85 ° F - 60 ° F 32% 29.56 pul - SO 20.7 mph - -  
5:00 PM 84.2 ° F 83.8 ° F 59.0 ° F 42% 29.53 pul 6.2 mi SO 20.7 mph - N/A   Muy nublado
5:07 PM 75.2 ° F - 68.0 ° F 78% 29.56 pul 6.2 mi Sur 21.9 mph - N/A   Nubes dispersas
5:30 PM 75.2 ° F - 68.0 ° F 78% 29.56 pul 6.2 mi SSE 17.3 mph - N/A   Muy nublado
6:00 PM 73 ° F - 68 ° F 81% 29.57 pul 12 mi SSE 16.1 mph - -   Bruma
6:00 PM 73.4 ° F - 68.0 ° F 83% 29.56 pul 6.2 mi SSE 16.1 mph - N/A   Muy nublado
6:30 PM 73.4 ° F - 68.0 ° F 83% 29.56 pul 6.2 mi Sur 16.1 mph - N/A   Muy nublado
7:00 PM 72 ° F - 67 ° F 81% 29.59 pul - SSE 17.3 mph - -  
7:00 PM 71.6 ° F - 68.0 ° F 88% 29.59 pul 6.2 mi SSE 17.3 mph - N/A   Nubes dispersas
7:30 PM 71.6 ° F - 68.0 ° F 88% 29.59 pul 6.2 mi SSE 18.4 mph - N/A   Nubes dispersas
8:00 PM 71 ° F - 67 ° F 82% 29.62 pul - SSE 18.4 mph - -  
8:00 PM 71.6 ° F - 66.2 ° F 83% 29.59 pul 6.2 mi SSE 18.4 mph - N/A   Nubes dispersas
8:30 PM 71.6 ° F - 66.2 ° F 83% 29.62 pul 6.2 mi SSE 17.3 mph - N/A   Muy nublado
9:00 PM 71 ° F - 66 ° F 78% 29.63 pul 12 mi SSE 15.0 mph - -   Bruma
9:00 PM 71.6 ° F - 66.2 ° F 83% 29.62 pul 6.2 mi SSE 15.0 mph - N/A   Nubes dispersas
9:30 PM 69.8 ° F - 66.2 ° F 88% 29.62 pul 6.2 mi SE 13.8 mph - N/A   Nubes dispersas
10:00 PM 71 ° F - 65 ° F 78% 29.65 pul - SSE 11.5 mph - -  
10:00 PM 69.8 ° F - 66.2 ° F 88% 29.65 pul 6.2 mi SSE 11.5 mph - N/A   Nubes dispersas
10:30 PM 69.8 ° F - 64.4 ° F 83% 29.65 pul 6.2 mi SE 10.4 mph - N/A   Nubes dispersas
11:00 PM 69 ° F - 64 ° F 80% 29.65 pul - ESE 8.1 mph - -  
11:00 PM 69.8 ° F - 64.4 ° F 83% 29.62 pul 6.2 mi ESE 8.1 mph - N/A   Parcialmente nublado
11:30 PM 68.0 ° F - 64.4 ° F 88% 29.62 pul 6.2 mi Este 4.6 mph - N/A   Parcialmente nublado